Back to catalog

STARLINK-11325

AliveCommunicationsVLEO
NORAD 61538·PAYLOAD·🇺🇸 United States

Launched Oct 15, 2024 from Vandenberg Space Force Base

Loading…

Next Passes (next 24 hours)

TLE

FreshSource: CelesTrak SupGP

Epoch: Sep 14, 2026, 13:35 UTC

1 61538C 24184G   26257.56645833 -.00049983  00000+0 -41174-3 0  2575
2 61538  53.1574  24.9153 0001091  83.2968   3.0427 15.69733585    10

Track STARLINK-11325 in real time with AllMySat

Download on the App Store